2020/11/05 23:28:35+0000,-38.05,-46.28,-31.54,-51.90,-55.86,-55.16
2020/11/05 23:29:27+0000,-38.71,-48.10,-32.54,-48.01,-55.82,-55.70
2020/11/05 23:30:19+0000,-38.97,-45.71,-32.13,-52.58,-55.63,-55.51
2020/11/05 23:31:19+0000,-38.80,-45.75,-31.43,-51.03,-55.74,-55.65
2020/11/05 23:32:11+0000,-38.16,-46.28,-32.12,-49.61,-55.56,-55.62
2020/11/05 23:33:03+0000,-38.93,-46.80,-31.99,-46.35,-56.18,-55.48
2020/11/05 23:33:55+0000,-38.53,-44.78,-31.92,-45.60,-55.89,-55.05
2020/11/05 23:34:47+0000,-39.07,-45.25,-31.92,-49.11,-55.93,-55.61
2020/11/05 23:35:39+0000,-38.11,-48.93,-31.90,-51.20,-54.45,-55.26
2020/11/05 23:36:31+0000,-38.71,-46.26,-31.74,-49.58,-54.97,-55.45
2020/11/05 23:37:23+0000,-38.75,-45.85,-31.88,-50.13,-55.22,-55.35
2020/11/05 23:38:15+0000,-38.53,-47.98,-32.04,-50.95,-55.64,-55.84
2020/11/05 23:39:07+0000,-38.61,-43.75,-31.57,-51.59,-56.14,-55.90
2020/11/05 23:40:00+0000,-37.89,-44.72,-31.84,-50.97,-55.76,-56.43
2020/11/05 23:40:58+0000,-38.37,-46.25,-32.13,-52.48,-56.44,-56.00
2020/11/05 23:41:51+0000,-37.84,-45.75,-31.48,-51.90,-56.28,-55.96
2020/11/05 23:42:43+0000,-37.88,-46.48,-31.86,-47.96,-55.90,-55.37
2020/11/05 23:43:35+0000,-38.30,-45.24,-31.75,-52.18,-55.27,-55.66
2020/11/05 23:44:27+0000,-38.25,-43.74,-31.33,-52.21,-55.61,-56.14
2020/11/05 23:45:19+0000,-38.73,-45.35,-31.90,-53.46,-56.26,-55.37
2020/11/05 23:46:11+0000,-38.67,-45.67,-31.74,-64.17,-55.71,-56.34
2020/11/05 23:47:03+0000,-38.65,-45.07,-32.02,-51.51,-55.94,-55.54
2020/11/05 23:47:55+0000,-38.12,-44.17,-30.97,-52.37,-55.92,-55.83
2020/11/05 23:48:47+0000,-38.78,-44.25,-31.83,-47.58,-55.18,-55.95
2020/11/05 23:49:40+0000,-38.72,-45.90,-31.25,-47.83,-55.30,-55.82
2020/11/05 23:50:32+0000,-37.65,-46.09,-31.51,-51.02,-55.81,-55.72
2020/11/05 23:51:33+0000,-38.38,-46.08,-31.53,-50.91,-55.89,-55.91
2020/11/05 23:52:25+0000,-38.51,-45.34,-26.89,-52.66,-55.50,-55.57
2020/11/05 23:53:17+0000,-37.83,-45.39,-26.34,-47.83,-55.75,-56.15
2020/11/05 23:54:09+0000,-38.07,-47.25,-32.27,-47.99,-55.74,-55.82
2020/11/05 23:55:01+0000,-38.19,-44.31,-32.25,-51.88,-55.96,-55.61
2020/11/05 23:55:53+0000,-38.64,-45.56,-15.60,-52.38,-55.72,-55.68
2020/11/05 23:56:45+0000,-39.68,-45.51,-31.87,-48.66,-56.42,-55.93
2020/11/05 23:57:37+0000,-39.15,-46.08,-31.89,-46.15,-55.82,-55.59
2020/11/05 23:58:30+0000,-38.90,-46.04,-32.41,-52.71,-55.94,-55.15
2020/11/05 23:59:22+0000,-38.50,-46.87,-26.96,-52.31,-55.94,-55.02
2020/11/06 00:00:15+0000,-39.14,-45.34,-32.26,-49.88,-55.91,-55.84
2020/11/06 00:01:17+0000,-39.39,-47.22,-32.69,-51.52,-56.15,-55.70
2020/11/06 00:02:09+0000,-39.26,-45.24,-32.38,-49.38,-55.77,-55.52
2020/11/06 00:03:01+0000,-39.15,-47.65,-32.14,-53.56,-55.24,-55.70
2020/11/06 00:03:53+0000,-39.19,-46.75,-32.31,-53.00,-55.68,-56.47
2020/11/06 00:04:45+0000,-39.52,-46.52,-31.79,-51.58,-56.30,-55.58
2020/11/06 00:05:37+0000,-39.66,-45.92,-31.99,-51.92,-56.23,-55.84
2020/11/06 00:06:29+0000,-41.05,-46.68,-32.90,-53.70,-56.53,-55.68
2020/11/06 00:07:21+0000,-40.59,-48.47,-32.16,-53.84,-55.38,-55.27
2020/11/06 00:08:13+0000,-40.20,-46.07,-31.78,-51.79,-55.69,-55.44
2020/11/06 00:09:05+0000,-40.30,-46.95,-32.40,-51.63,-56.11,-55.71
2020/11/06 00:09:58+0000,-40.52,-45.84,-32.18,-53.08,-55.98,-55.99
2020/11/06 00:10:50+0000,-39.82,-48.16,-31.84,-53.38,-56.04,-55.87
2020/11/06 00:11:47+0000,-39.56,-46.27,-27.08,-53.46,-56.04,-55.35
2020/11/06 00:12:40+0000,-39.74,-45.64,-32.10,-52.92,-56.12,-56.19
2020/11/06 00:13:32+0000,-39.65,-46.35,-32.32,-46.21,-55.80,-55.85
2020/11/06 00:14:24+0000,-39.64,-45.39,-26.76,-54.09,-56.19,-55.61
2020/11/06 00:15:16+0000,-40.28,-44.99,-26.71,-50.40,-55.92,-55.88
2020/11/06 00:16:08+0000,-40.22,-45.74,-32.32,-50.66,-55.81,-56.37
2020/11/06 00:17:00+0000,-39.79,-47.38,-31.87,-52.37,-55.81,-55.59
2020/11/06 00:17:52+0000,-40.09,-48.59,-27.31,-53.07,-55.44,-55.52
2020/11/06 00:18:44+0000,-40.51,-45.75,-26.99,-46.30,-55.59,-56.27
2020/11/06 00:19:36+0000,-39.55,-47.10,-31.90,-46.64,-55.56,-55.89
2020/11/06 00:20:29+0000,-39.83,-45.96,-32.29,-52.58,-56.09,-55.43
2020/11/06 00:21:26+0000,-39.22,-46.74,-27.25,-51.76,-56.40,-55.92
2020/11/06 00:22:18+0000,-39.36,-45.22,-26.75,-54.11,-56.16,-55.94
2020/11/06 00:23:10+0000,-39.48,-46.42,-32.37,-44.18,-56.19,-55.50
2020/11/06 00:24:02+0000,-39.14,-46.06,-32.33,-52.48,-55.92,-56.03
2020/11/06 00:24:55+0000,-39.28,-46.42,-26.66,-53.29,-55.83,-56.32
2020/11/06 00:25:47+0000,-38.82,-45.43,-26.63,-44.34,-55.48,-55.52
2020/11/06 00:26:39+0000,-38.85,-46.57,-32.58,-48.92,-55.54,-55.96
2020/11/06 00:27:31+0000,-39.43,-46.20,-32.41,-51.94,-56.06,-56.37
2020/11/06 00:28:23+0000,-38.96,-46.25,-26.57,-50.81,-55.77,-55.47
2020/11/06 00:29:15+0000,-39.41,-46.86,-27.22,-52.28,-55.88,-55.35
2020/11/06 00:30:08+0000,-39.05,-48.12,-32.67,-51.20,-55.82,-55.99
2020/11/06 00:31:05+0000,-39.20,-48.55,-32.29,-50.41,-55.80,-55.56
2020/11/06 00:31:57+0000,-38.74,-45.69,-32.75,-52.13,-55.40,-55.80
2020/11/06 00:32:49+0000,-39.58,-45.54,-26.67,-52.44,-55.45,-55.88
2020/11/06 00:33:41+0000,-39.99,-46.00,-32.21,-50.99,-55.21,-55.84
2020/11/06 00:34:33+0000,-38.59,-46.34,-32.15,-52.17,-55.76,-55.25
2020/11/06 00:35:25+0000,-39.44,-46.75,-26.59,-51.41,-55.28,-54.84
2020/11/06 00:36:17+0000,-39.89,-47.44,-27.09,-51.73,-56.05,-54.83
2020/11/06 00:37:10+0000,-39.70,-46.53,-31.52,-51.54,-55.59,-55.84
2020/11/06 00:38:02+0000,-40.25,-46.22,-31.34,-50.51,-55.74,-55.61
2020/11/06 00:38:54+0000,-39.80,-45.89,-26.61,-49.19,-55.64,-55.21
2020/11/06 00:39:46+0000,-39.22,-46.49,-27.15,-51.41,-55.77,-55.30
2020/11/06 00:40:39+0000,-39.33,-46.07,-31.96,-50.71,-55.62,-54.90
2020/11/06 00:41:39+0000,-38.63,-46.78,-32.29,-51.39,-55.67,-55.18
2020/11/06 00:42:31+0000,-39.64,-45.39,-32.07,-51.43,-55.72,-55.31
2020/11/06 00:43:23+0000,-38.91,-46.41,-27.15,-51.50,-55.75,-54.99
2020/11/06 00:44:15+0000,-37.21,-44.94,-26.41,-50.70,-55.62,-54.79
2020/11/06 00:45:07+0000,-35.82,-47.81,-31.20,-45.19,-55.61,-54.84
2020/11/06 00:45:59+0000,-37.00,-45.73,-31.80,-51.21,-55.79,-54.56
2020/11/06 00:46:51+0000,-36.52,-47.85,-26.40,-51.65,-55.02,-55.10
2020/11/06 00:47:43+0000,-37.37,-45.71,-31.78,-48.23,-55.06,-55.50
2020/11/06 00:48:35+0000,-37.40,-46.83,-31.12,-48.55,-55.51,-54.90
2020/11/06 00:49:27+0000,-35.24,-46.90,-31.77,-51.45,-55.94,-55.05
2020/11/06 00:50:20+0000,-35.58,-46.86,-26.86,-51.51,-55.51,-55.23
2020/11/06 00:51:26+0000,-34.97,-46.75,-26.87,-51.24,-56.29,-55.45
2020/11/06 00:52:18+0000,-36.20,-45.14,-27.16,-49.61,-55.75,-55.34
2020/11/06 00:53:10+0000,-35.18,-43.45,-32.24,-49.06,-55.39,-55.51
2020/11/06 00:54:02+0000,-33.91,-44.97,-31.87,-51.89,-55.48,-55.18
2020/11/06 00:54:54+0000,-34.07,-47.36,-26.66,-48.31,-55.33,-55.47
2020/11/06 00:55:46+0000,-37.06,-46.76,-26.61,-48.28,-55.09,-55.27
2020/11/06 00:56:38+0000,-36.32,-49.98,-32.67,-45.23,-55.59,-55.47
2020/11/06 00:57:30+0000,-36.48,-46.78,-32.53,-51.24,-55.32,-55.66
2020/11/06 00:58:22+0000,-35.43,-49.84,-32.10,-51.34,-55.40,-55.32
2020/11/06 00:59:14+0000,-35.39,-47.81,-32.35,-49.38,-55.48,-55.51
2020/11/06 01:00:07+0000,-36.57,-49.86,-32.28,-48.63,-55.16,-54.48
2020/11/06 01:01:32+0000,-36.62,-47.84,-31.65,-51.54,-54.95,-55.75
2020/11/06 01:02:24+0000,-35.46,-48.72,-32.35,-51.99,-55.49,-55.41
2020/11/06 01:03:16+0000,-34.16,-48.30,-32.65,-46.83,-55.76,-55.03
2020/11/06 01:04:09+0000,-36.96,-47.05,-32.29,-48.13,-54.83,-54.90
2020/11/06 01:05:01+0000,-36.96,-45.67,-32.05,-51.96,-54.92,-55.35
2020/11/06 01:05:53+0000,-36.19,-47.24,-32.22,-52.12,-55.88,-54.73
2020/11/06 01:06:45+0000,-37.40,-48.22,-31.97,-45.91,-55.49,-54.67
2020/11/06 01:07:37+0000,-37.16,-49.90,-32.28,-47.96,-55.92,-55.83
2020/11/06 01:08:29+0000,-35.07,-47.05,-32.79,-51.86,-55.26,-55.30
2020/11/06 01:09:21+0000,-34.02,-49.91,-32.12,-52.55,-55.10,-55.49
2020/11/06 01:10:14+0000,-36.99,-47.46,-32.23,-47.52,-55.56,-55.77
2020/11/06 01:11:20+0000,-35.27,-50.12,-32.01,-51.96,-55.35,-55.04
2020/11/06 01:12:12+0000,-35.41,-49.20,-31.45,-49.20,-55.36,-55.10
2020/11/06 01:13:04+0000,-36.02,-46.62,-32.10,-52.26,-55.38,-55.21
2020/11/06 01:13:56+0000,-35.78,-47.22,-31.96,-48.59,-54.96,-55.58
2020/11/06 01:14:48+0000,-35.14,-48.42,-32.23,-52.57,-55.00,-55.30
2020/11/06 01:15:40+0000,-34.68,-47.29,-32.02,-50.09,-55.13,-55.48
2020/11/06 01:16:32+0000,-35.56,-46.48,-32.13,-46.95,-54.54,-55.28
2020/11/06 01:17:24+0000,-33.91,-46.83,-11.83,-50.78,-55.64,-55.36
2020/11/06 01:18:16+0000,-34.77,-47.63,-11.71,-47.43,-55.12,-55.32
2020/11/06 01:19:08+0000,-33.27,-49.50,-33.01,-49.18,-55.60,-55.52
2020/11/06 01:20:01+0000,-35.36,-43.39,-32.44,-50.92,-54.88,-55.33
2020/11/06 01:21:01+0000,-36.19,-45.53,-33.05,-49.39,-54.82,-55.65
2020/11/06 01:21:53+0000,-34.71,-44.93,-33.08,-51.19,-55.26,-55.48
2020/11/06 01:22:45+0000,-36.45,-47.67,-32.55,-51.78,-55.37,-55.68
2020/11/06 01:23:37+0000,-35.59,-49.58,-26.79,-51.63,-54.78,-55.55
2020/11/06 01:24:30+0000,-36.28,-45.11,-32.71,-50.13,-54.97,-55.46
2020/11/06 01:25:22+0000,-34.83,-50.33,-32.69,-50.36,-54.71,-55.33
2020/11/06 01:26:14+0000,-35.11,-47.99,-32.30,-52.00,-55.17,-54.89
2020/11/06 01:27:06+0000,-36.32,-50.13,-32.60,-52.48,-55.10,-55.48
2020/11/06 01:27:58+0000,-34.57,-44.83,-32.13,-51.15,-55.52,-55.46
2020/11/06 01:28:50+0000,-34.74,-49.21,-32.74,-52.44,-55.19,-55.26
2020/11/06 01:29:43+0000,-35.80,-44.38,-32.35,-52.46,-55.12,-55.23
2020/11/06 01:30:35+0000,-35.97,-45.42,-32.82,-52.19,-54.86,-55.38
2020/11/06 01:31:35+0000,-35.20,-50.18,-32.09,-52.65,-55.34,-55.20
2020/11/06 01:32:28+0000,-34.17,-45.49,-32.48,-52.54,-54.42,-55.47
2020/11/06 01:33:20+0000,-32.90,-47.29,-32.52,-53.06,-55.29,-56.04
2020/11/06 01:34:12+0000,-35.76,-45.90,-32.73,-52.90,-55.37,-55.86
2020/11/06 01:35:04+0000,-34.78,-48.44,-31.99,-52.21,-54.78,-55.31
2020/11/06 01:35:56+0000,-31.63,-47.03,-31.71,-53.26,-55.03,-55.82
2020/11/06 01:36:48+0000,-32.77,-46.18,-32.27,-51.66,-54.98,-55.02
2020/11/06 01:37:40+0000,-33.49,-46.79,-26.48,-52.70,-55.26,-55.84
2020/11/06 01:38:32+0000,-33.35,-46.10,-31.32,-52.74,-54.92,-55.35
2020/11/06 01:39:24+0000,-32.91,-46.18,-26.48,-52.16,-55.03,-55.69
2020/11/06 01:40:17+0000,-32.60,-47.21,-26.60,-51.51,-55.32,-55.95
2020/11/06 01:41:15+0000,-34.67,-47.77,-17.11,-52.06,-55.57,-55.53
2020/11/06 01:42:07+0000,-35.27,-50.16,-31.43,-51.80,-54.83,-55.54
2020/11/06 01:42:59+0000,-33.74,-46.80,-32.05,-52.58,-55.22,-55.57
2020/11/06 01:43:51+0000,-33.41,-50.41,-26.54,-53.37,-55.68,-55.36
2020/11/06 01:44:43+0000,-34.80,-49.43,-32.13,-52.64,-54.77,-55.42
2020/11/06 01:45:35+0000,-34.15,-43.35,-32.32,-53.03,-55.17,-55.46
2020/11/06 01:46:27+0000,-35.94,-45.36,-32.15,-51.92,-55.50,-55.17
2020/11/06 01:47:19+0000,-34.88,-47.54,-32.05,-52.82,-54.93,-55.52
2020/11/06 01:48:11+0000,-36.02,-47.47,-32.44,-51.80,-55.17,-55.25
2020/11/06 01:49:03+0000,-35.74,-42.93,-32.27,-52.48,-55.33,-55.31
2020/11/06 01:49:56+0000,-33.75,-41.77,-31.90,-52.23,-55.23,-55.42
2020/11/06 01:50:48+0000,-33.66,-45.11,-31.40,-52.10,-54.72,-55.06
2020/11/06 01:51:53+0000,-33.20,-48.96,-32.16,-52.53,-54.62,-55.49
2020/11/06 01:52:45+0000,-37.49,-43.75,-32.23,-52.66,-55.15,-55.71
2020/11/06 01:53:37+0000,-36.30,-51.20,-31.58,-52.17,-55.25,-55.19
2020/11/06 01:54:29+0000,-36.84,-45.71,-31.80,-51.94,-54.95,-55.27
2020/11/06 01:55:21+0000,-33.24,-50.89,-32.78,-52.15,-55.13,-55.34
2020/11/06 01:56:13+0000,-37.30,-45.08,-32.05,-52.20,-55.04,-55.10
2020/11/06 01:57:05+0000,-36.57,-46.81,-31.48,-52.23,-55.31,-55.39
2020/11/06 01:57:58+0000,-34.07,-44.73,-32.52,-52.46,-54.74,-55.08
2020/11/06 01:58:50+0000,-32.81,-45.48,-32.50,-52.95,-55.45,-55.04
2020/11/06 01:59:43+0000,-37.54,-45.19,-32.68,-52.08,-55.12,-55.78
2020/11/06 02:00:35+0000,-35.95,-44.98,-32.72,-52.50,-55.33,-54.98
2020/11/06 02:01:41+0000,-36.31,-44.65,-32.61,-52.26,-55.24,-55.47
2020/11/06 02:02:33+0000,-35.76,-42.26,-32.11,-52.77,-55.52,-55.21
2020/11/06 02:03:26+0000,-34.39,-43.50,-32.57,-52.81,-55.42,-55.11
2020/11/06 02:04:18+0000,-34.65,-46.49,-32.47,-53.56,-55.18,-55.06
2020/11/06 02:05:10+0000,-33.95,-46.42,-32.66,-52.43,-55.42,-55.03
2020/11/06 02:06:02+0000,-34.14,-43.17,-32.20,-52.33,-55.44,-55.40
2020/11/06 02:06:54+0000,-33.40,-46.32,-32.62,-52.60,-55.20,-56.00
2020/11/06 02:07:46+0000,-34.46,-47.55,-32.33,-52.96,-55.25,-55.48
2020/11/06 02:08:38+0000,-32.20,-48.47,-33.42,-51.98,-55.12,-55.20
2020/11/06 02:09:30+0000,-34.67,-40.95,-32.15,-52.83,-54.71,-55.74
2020/11/06 02:10:23+0000,-33.01,-45.40,-32.28,-52.51,-55.02,-55.48
2020/11/06 02:11:28+0000,-34.08,-43.37,-32.29,-52.48,-54.88,-55.46
2020/11/06 02:12:20+0000,-34.54,-49.53,-32.70,-52.22,-55.09,-55.47
2020/11/06 02:13:12+0000,-32.58,-46.99,-31.99,-52.06,-55.64,-55.31
2020/11/06 02:14:04+0000,-35.74,-45.35,-32.88,-52.84,-54.97,-55.08
2020/11/06 02:14:57+0000,-35.24,-43.29,-32.63,-53.14,-55.55,-55.56
2020/11/06 02:15:49+0000,-35.52,-45.68,-33.04,-52.76,-54.71,-55.46
2020/11/06 02:16:41+0000,-33.45,-48.29,-32.46,-53.02,-54.70,-55.14
2020/11/06 02:17:33+0000,-34.28,-44.35,-32.48,-52.68,-55.10,-55.29
2020/11/06 02:18:25+0000,-32.46,-45.29,-32.49,-52.98,-54.68,-55.53
2020/11/06 02:19:17+0000,-34.27,-46.11,-31.94,-52.44,-54.56,-55.64
2020/11/06 02:20:10+0000,-33.14,-46.34,-32.73,-52.96,-55.27,-54.79
2020/11/06 02:21:10+0000,-33.99,-45.44,-32.04,-52.38,-54.66,-55.15
2020/11/06 02:22:02+0000,-33.69,-44.88,-32.30,-53.11,-55.25,-55.09
2020/11/06 02:22:55+0000,-34.30,-42.87,-32.21,-53.10,-55.06,-55.57
2020/11/06 02:23:47+0000,-33.60,-46.60,-32.06,-52.31,-54.88,-55.64
2020/11/06 02:24:39+0000,-33.26,-44.05,-32.13,-52.62,-55.17,-54.96
2020/11/06 02:25:31+0000,-34.51,-46.42,-31.98,-52.28,-55.34,-54.90
2020/11/06 02:26:23+0000,-31.59,-45.88,-32.13,-52.25,-55.03,-55.37
2020/11/06 02:27:15+0000,-35.53,-47.29,-32.66,-53.08,-55.28,-54.95
2020/11/06 02:28:07+0000,-32.13,-49.46,-31.92,-52.67,-55.16,-55.25
2020/11/06 02:28:59+0000,-34.20,-44.97,-32.49,-52.64,-55.09,-55.71
2020/11/06 02:29:52+0000,-32.83,-49.87,-31.58,-52.74,-54.81,-54.66
2020/11/06 02:30:44+0000,-35.79,-48.24,-32.39,-51.80,-55.16,-55.42
2020/11/06 02:31:50+0000,-31.79,-44.52,-32.56,-52.42,-55.13,-55.44
2020/11/06 02:32:42+0000,-31.19,-45.73,-32.72,-51.60,-55.48,-55.57
2020/11/06 02:33:34+0000,-29.75,-44.23,-31.98,-52.47,-53.95,-55.16
2020/11/06 02:34:26+0000,-31.46,-46.18,-31.90,-52.22,-54.58,-55.23
2020/11/06 02:35:18+0000,-33.80,-46.49,-32.11,-52.44,-54.71,-54.75
2020/11/06 02:36:10+0000,-32.88,-46.36,-32.36,-51.37,-54.18,-55.44
2020/11/06 02:37:02+0000,-31.91,-42.07,-32.20,-52.37,-54.53,-55.56
2020/11/06 02:37:54+0000,-34.03,-45.96,-32.35,-52.37,-55.44,-55.52
2020/11/06 02:38:46+0000,-35.14,-46.53,-32.93,-51.79,-54.91,-55.68
2020/11/06 02:39:39+0000,-31.65,-46.31,-32.04,-51.93,-55.30,-55.55
2020/11/06 02:40:33+0000,-35.93,-43.98,-32.39,-52.67,-55.10,-54.69
2020/11/06 02:41:38+0000,-35.19,-49.35,-32.38,-51.98,-55.49,-55.49
2020/11/06 02:42:30+0000,-35.82,-44.08,-31.85,-52.80,-55.29,-55.74
2020/11/06 02:43:22+0000,-32.57,-48.87,-31.55,-51.76,-55.10,-55.74
2020/11/06 02:44:14+0000,-32.55,-48.08,-32.10,-52.03,-54.60,-55.29
2020/11/06 02:45:06+0000,-31.83,-48.94,-32.11,-52.07,-54.81,-55.65
2020/11/06 02:45:58+0000,-28.32,-46.07,-32.05,-52.82,-55.62,-55.20
2020/11/06 02:46:50+0000,-29.17,-48.50,-32.51,-52.50,-55.28,-55.44
2020/11/06 02:47:43+0000,-31.99,-46.96,-32.53,-51.30,-54.63,-55.59
2020/11/06 02:48:35+0000,-33.17,-45.53,-31.66,-52.47,-54.91,-55.16
2020/11/06 02:49:27+0000,-34.35,-44.94,-32.98,-52.12,-55.68,-55.71
2020/11/06 02:50:20+0000,-34.26,-48.08,-32.09,-52.76,-55.07,-55.33
2020/11/06 02:51:20+0000,-33.12,-47.33,-32.26,-52.04,-55.19,-55.54
2020/11/06 02:52:12+0000,-32.04,-47.57,-32.53,-52.60,-54.43,-55.73
2020/11/06 02:53:04+0000,-34.22,-44.30,-32.07,-51.80,-54.56,-54.16
2020/11/06 02:53:56+0000,-33.98,-45.41,-31.08,-51.85,-54.78,-54.86
2020/11/06 02:54:48+0000,-34.22,-45.99,-31.85,-52.48,-54.77,-55.01
2020/11/06 02:55:40+0000,-35.35,-46.90,-32.38,-52.41,-54.06,-55.68
2020/11/06 02:56:32+0000,-34.08,-46.92,-32.04,-52.87,-55.16,-55.17
2020/11/06 02:57:24+0000,-33.81,-47.46,-32.21,-52.50,-55.46,-55.91
2020/11/06 02:58:17+0000,-34.25,-48.36,-32.23,-52.04,-55.27,-55.33
2020/11/06 02:59:09+0000,-35.00,-50.28,-32.11,-52.16,-55.35,-55.64
2020/11/06 03:00:02+0000,-35.59,-47.01,-31.71,-52.28,-55.11,-56.24
2020/11/06 03:01:02+0000,-31.81,-46.39,-32.16,-52.35,-55.22,-55.55
2020/11/06 03:01:55+0000,-32.95,-47.27,-31.72,-52.50,-54.86,-56.06
2020/11/06 03:02:47+0000,-34.97,-48.15,-31.90,-51.94,-55.48,-55.44
2020/11/06 03:03:39+0000,-31.21,-47.90,-32.00,-52.19,-54.62,-55.62
2020/11/06 03:04:31+0000,-32.79,-46.34,-32.21,-52.53,-55.12,-55.80
2020/11/06 03:05:23+0000,-33.16,-48.18,-31.93,-52.39,-55.00,-55.70
2020/11/06 03:06:15+0000,-35.70,-47.58,-31.81,-52.09,-55.06,-55.46
2020/11/06 03:07:07+0000,-32.42,-49.05,-31.34,-52.45,-55.14,-55.85
2020/11/06 03:07:59+0000,-34.29,-45.79,-31.61,-52.38,-55.00,-55.69
2020/11/06 03:08:51+0000,-34.25,-49.02,-32.15,-51.97,-55.39,-56.31
2020/11/06 03:09:44+0000,-36.04,-47.34,-31.58,-52.45,-55.27,-55.64
2020/11/06 03:10:36+0000,-33.68,-48.71,-32.03,-51.98,-54.97,-55.92
2020/11/06 03:11:38+0000,-34.54,-47.31,-32.34,-52.32,-55.17,-55.18
2020/11/06 03:12:30+0000,-36.13,-46.41,-31.94,-52.34,-55.11,-55.22
2020/11/06 03:13:22+0000,-35.75,-48.71,-32.18,-51.77,-54.93,-55.21
2020/11/06 03:14:14+0000,-34.62,-47.03,-32.10,-52.38,-55.03,-55.82
2020/11/06 03:15:06+0000,-32.86,-49.35,-32.30,-50.92,-55.09,-55.36
2020/11/06 03:15:58+0000,-33.53,-44.95,-31.98,-51.70,-54.53,-55.96
2020/11/06 03:16:50+0000,-33.52,-49.34,-31.93,-52.33,-55.49,-55.04
2020/11/06 03:17:42+0000,-33.36,-47.34,-32.32,-52.39,-55.96,-55.72
2020/11/06 03:18:34+0000,-32.58,-46.63,-32.09,-52.48,-55.31,-55.60
2020/11/06 03:19:26+0000,-35.00,-47.47,-32.17,-51.54,-55.84,-55.70
2020/11/06 03:20:19+0000,-34.46,-47.01,-32.16,-52.80,-55.45,-55.71
2020/11/06 03:21:18+0000,-35.56,-47.71,-31.85,-52.72,-54.37,-55.38
2020/11/06 03:22:10+0000,-29.47,-47.60,-31.82,-52.84,-54.96,-56.09
2020/11/06 03:23:02+0000,-30.20,-48.07,-31.65,-52.65,-55.43,-55.47
2020/11/06 03:23:54+0000,-35.04,-48.70,-31.69,-53.30,-54.59,-55.52
2020/11/06 03:24:46+0000,-33.74,-46.01,-32.22,-52.50,-55.47,-56.04
2020/11/06 03:25:38+0000,-30.64,-46.38,-31.80,-51.62,-54.72,-56.37
2020/11/06 03:26:30+0000,-34.75,-47.06,-32.08,-52.70,-54.35,-55.73
2020/11/06 03:27:22+0000,-34.68,-47.40,-32.05,-52.77,-55.19,-55.82
2020/11/06 03:28:15+0000,-35.77,-45.48,-32.12,-52.21,-55.40,-56.12
2020/11/06 03:29:07+0000,-31.21,-45.23,-31.78,-52.91,-55.14,-56.17
2020/11/06 03:30:00+0000,-34.48,-47.69,-32.24,-52.97,-54.64,-55.79
2020/11/06 03:31:00+0000,-36.31,-46.85,-31.75,-52.10,-55.14,-55.80
2020/11/06 03:31:52+0000,-35.43,-49.20,-31.55,-51.97,-54.75,-56.22
2020/11/06 03:32:44+0000,-30.73,-43.57,-31.88,-52.14,-55.03,-55.55
2020/11/06 03:33:36+0000,-30.89,-48.98,-32.07,-52.29,-54.55,-55.88
2020/11/06 03:34:28+0000,-36.32,-46.68,-31.53,-53.74,-55.23,-55.94
2020/11/06 03:35:20+0000,-35.78,-45.88,-31.84,-52.95,-54.65,-55.58
2020/11/06 03:36:12+0000,-33.31,-44.56,-31.90,-52.36,-54.48,-55.88
2020/11/06 03:37:04+0000,-32.24,-46.72,-31.99,-53.20,-55.21,-55.84
2020/11/06 03:37:56+0000,-35.45,-46.10,-32.27,-52.97,-55.03,-55.65
2020/11/06 03:38:48+0000,-34.37,-46.59,-31.80,-52.61,-55.45,-55.57
2020/11/06 03:39:41+0000,-32.43,-45.78,-31.95,-52.87,-54.53,-56.18
2020/11/06 03:40:33+0000,-32.85,-46.64,-31.44,-52.13,-54.94,-55.92
2020/11/06 03:41:38+0000,-32.04,-47.16,-31.76,-51.25,-55.67,-55.78
2020/11/06 03:42:30+0000,-34.73,-44.73,-31.24,-52.61,-54.63,-56.27
2020/11/06 03:43:23+0000,-35.32,-48.40,-31.85,-52.57,-55.22,-55.58
2020/11/06 03:44:15+0000,-34.95,-44.65,-31.10,-52.19,-54.68,-55.75
2020/11/06 03:45:07+0000,-32.40,-48.83,-31.86,-52.26,-55.23,-55.91
2020/11/06 03:45:59+0000,-34.33,-46.58,-31.60,-52.36,-54.69,-56.01
2020/11/06 03:46:51+0000,-33.40,-48.72,-31.97,-51.88,-55.38,-56.11
2020/11/06 03:47:43+0000,-33.86,-45.43,-31.65,-45.96,-55.04,-55.77
2020/11/06 03:48:35+0000,-33.97,-46.56,-31.98,-52.85,-55.07,-55.81
2020/11/06 03:49:27+0000,-33.30,-46.36,-31.69,-52.06,-55.60,-55.47
2020/11/06 03:50:20+0000,-32.58,-44.85,-32.11,-52.38,-55.31,-55.71
2020/11/06 03:51:21+0000,-33.30,-49.80,-31.81,-52.35,-55.11,-55.86
2020/11/06 03:52:14+0000,-34.06,-42.87,-31.84,-52.18,-54.78,-55.83
2020/11/06 03:53:06+0000,-35.47,-48.46,-31.86,-52.82,-54.93,-55.72
2020/11/06 03:53:58+0000,-34.32,-48.33,-31.72,-52.88,-55.44,-56.19
2020/11/06 03:54:50+0000,-34.70,-44.13,-32.25,-52.65,-54.58,-55.86
2020/11/06 03:55:42+0000,-34.91,-43.42,-32.21,-52.29,-55.45,-55.88
2020/11/06 03:56:34+0000,-34.90,-48.41,-32.47,-52.76,-55.20,-56.10
2020/11/06 03:57:26+0000,-34.11,-48.21,-31.69,-52.08,-55.34,-56.56
2020/11/06 03:58:18+0000,-36.79,-48.58,-32.48,-52.10,-55.35,-55.92
2020/11/06 03:59:10+0000,-35.30,-46.88,-32.09,-52.99,-54.94,-55.70
2020/11/06 04:00:03+0000,-35.20,-48.92,-32.36,-51.96,-53.91,-55.82
2020/11/06 04:01:03+0000,-34.84,-47.76,-31.93,-52.76,-55.17,-56.04
2020/11/06 04:01:55+0000,-34.50,-48.37,-31.82,-51.27,-54.17,-53.71
2020/11/06 04:02:47+0000,-33.60,-47.59,-31.71,-52.18,-55.41,-52.83
2020/11/06 04:03:39+0000,-32.60,-46.71,-32.04,-52.30,-54.57,-53.85
2020/11/06 04:04:31+0000,-31.62,-47.11,-32.35,-52.67,-54.27,-53.63
2020/11/06 04:05:24+0000,-34.43,-46.94,-32.40,-52.53,-54.40,-52.87
2020/11/06 04:06:16+0000,-33.50,-47.25,-32.27,-52.83,-54.92,-53.52
2020/11/06 04:07:08+0000,-32.67,-47.19,-32.01,-53.09,-54.65,-54.17
2020/11/06 04:08:00+0000,-34.41,-46.96,-31.75,-52.96,-55.22,-53.43
2020/11/06 04:08:52+0000,-34.36,-47.94,-32.23,-52.12,-54.69,-53.07
2020/11/06 04:09:45+0000,-35.22,-44.05,-31.93,-52.69,-54.38,-53.21
2020/11/06 04:10:37+0000,-33.73,-44.66,-31.74,-52.37,-54.24,-53.07
2020/11/06 04:11:36+0000,-32.99,-47.00,-31.99,-52.19,-55.41,-53.38
2020/11/06 04:12:28+0000,-35.16,-44.45,-32.71,-52.45,-54.90,-54.38
2020/11/06 04:13:20+0000,-35.92,-45.08,-32.40,-52.23,-55.54,-52.49
2020/11/06 04:14:12+0000,-33.67,-44.69,-31.99,-52.23,-54.91,-54.60
2020/11/06 04:15:04+0000,-34.20,-46.29,-31.71,-52.34,-54.58,-54.60
2020/11/06 04:15:56+0000,-35.41,-45.88,-31.48,-52.19,-55.58,-54.85
2020/11/06 04:16:48+0000,-34.42,-45.59,-31.96,-52.46,-54.95,-54.40
2020/11/06 04:17:40+0000,-36.87,-44.42,-31.64,-52.49,-54.48,-54.55
2020/11/06 04:18:33+0000,-36.01,-45.41,-32.49,-52.69,-54.59,-53.55
2020/11/06 04:19:25+0000,-34.64,-45.28,-31.88,-52.83,-54.52,-54.00
2020/11/06 04:20:18+0000,-35.21,-45.30,-31.85,-52.45,-55.64,-54.41
2020/11/06 04:21:17+0000,-35.78,-44.50,-32.05,-52.66,-53.87,-55.04
2020/11/06 04:22:09+0000,-33.71,-45.91,-31.62,-52.43,-54.75,-53.75
2020/11/06 04:23:01+0000,-33.29,-47.52,-31.77,-52.18,-54.35,-53.94
2020/11/06 04:23:53+0000,-34.44,-45.74,-31.54,-52.84,-55.30,-54.27
2020/11/06 04:24:45+0000,-34.00,-45.96,-32.11,-52.13,-53.99,-54.89
2020/11/06 04:25:38+0000,-32.40,-46.17,-32.29,-52.49,-53.85,-54.48
2020/11/06 04:26:30+0000,-34.49,-46.35,-32.09,-52.63,-54.50,-54.61
2020/11/06 04:27:22+0000,-33.16,-46.79,-31.96,-52.98,-55.24,-54.14
2020/11/06 04:28:14+0000,-35.93,-46.95,-31.81,-52.11,-54.88,-54.12
2020/11/06 04:29:06+0000,-34.99,-46.78,-31.88,-52.84,-54.31,-54.79
2020/11/06 04:29:59+0000,-37.20,-46.86,-31.70,-52.91,-53.99,-54.33
2020/11/06 04:30:51+0000,-33.45,-47.01,-31.54,-53.42,-55.00,-54.79
2020/11/06 04:31:56+0000,-31.88,-47.68,-32.20,-52.41,-54.25,-53.75
2020/11/06 04:32:48+0000,-33.52,-46.17,-31.70,-52.92,-54.91,-53.93
2020/11/06 04:33:40+0000,-37.76,-48.59,-31.92,-53.06,-54.98,-54.11
2020/11/06 04:34:32+0000,-36.14,-46.90,-32.20,-52.72,-54.87,-54.73
2020/11/06 04:35:24+0000,-35.08,-46.58,-32.19,-53.39,-54.78,-54.38
2020/11/06 04:36:16+0000,-35.67,-46.07,-32.13,-53.29,-54.59,-54.45
2020/11/06 04:37:08+0000,-34.80,-46.91,-31.79,-53.82,-55.02,-53.63
2020/11/06 04:38:00+0000,-37.34,-46.61,-32.08,-52.99,-55.00,-53.32
2020/11/06 04:38:52+0000,-35.88,-47.58,-31.99,-52.57,-54.66,-53.22
2020/11/06 04:39:45+0000,-35.60,-46.61,-32.02,-52.68,-55.22,-53.67
2020/11/06 04:40:37+0000,-35.08,-48.16,-32.09,-52.30,-55.16,-53.87
2020/11/06 04:41:43+0000,-34.64,-47.48,-31.93,-53.13,-55.23,-53.81
2020/11/06 04:42:35+0000,-37.17,-48.31,-32.25,-52.76,-55.12,-53.94
2020/11/06 04:43:27+0000,-36.57,-48.18,-32.28,-53.00,-55.84,-53.51
2020/11/06 04:44:19+0000,-36.96,-47.15,-31.94,-53.69,-54.98,-54.13